H1 CPF 2 NER 2021 3 2 9 061 01 glonass141 H2 1908801 9141 44850 2021 3 2 0 0 0 2021 3 5 23 45 0 900 1 1 0 0 0 1 H9 10 0 59275 0.00000 0 -12751069.614 -5717463.791 -21309996.510 10 0 59275 900.00000 0 -10251480.661 -6741211.506 -22334360.093 10 0 59275 1800.00000 0 -7745513.325 -7991466.744 -22923688.666 10 0 59275 2700.00000 0 -5299554.057 -9445699.275 -23066503.781 10 0 59275 3600.00000 0 -2975363.192 -11069864.265 -22760044.539 10 0 59275 4500.00000 0 -827700.956 -12819688.073 -22010319.956 10 0 59275 5400.00000 0 1097740.617 -14642401.810 -20831988.217 10 0 59275 6300.00000 0 2766013.891 -16478850.157 -19248065.400 10 0 59275 7200.00000 0 4154130.731 -18265886.618 -17289469.658 10 0 59275 8100.00000 0 5251766.999 -19938954.397 -14994410.201 10 0 59275 9000.00000 0 6061428.668 -21434744.119 -12407633.439 10 0 59275 9900.00000 0 6598074.475 -22693816.338 -9579541.676 10 0 59275 10800.00000 0 6888213.281 -23663078.405 -6565202.191 10 0 59275 11700.00000 0 6968516.348 -24298011.473 -3423266.773 10 0 59275 12600.00000 0 6884005.263 -24564554.147 -214823.613 10 0 59275 13500.00000 0 6685893.971 -24440563.998 2997795.380 10 0 59275 14400.00000 0 6429177.755 -23916796.132 6152228.012 10 0 59275 15300.00000 0 6170072.292 -22997358.528 9187291.899 10 0 59275 16200.00000 0 5963411.820 -21699625.956 12044167.592 10 0 59275 17100.00000 0 5860116.658 -20053616.951 14667531.980 10 0 59275 18000.00000 0 5904836.917 -18100860.751 17006620.439 10 0 59275 18900.00000 0 6133871.377 -15892802.011 19016198.058 10 0 59275 19800.00000 0 6573448.633 -13488810.023 20657422.312 10 0 59275 20700.00000 0 7238442.211 -10953875.137 21898581.728 10 0 59275 21600.00000 0 8131573.190 -8356087.467 22715697.686 10 0 59275 22500.00000 0 9243133.622 -5764001.477 23092978.997 10 0 59275 23400.00000 0 10551242.578 -3243994.388 23023121.488 10 0 59275 24300.00000 0 12022624.780 -857726.278 22507447.518 10 0 59275 25200.00000 0 13613880.430 1340194.609 21555882.993 10 0 59275 26100.00000 0 15273194.607 3304246.151 20186772.099 10 0 59275 27000.00000 0 16942416.540 4999643.289 18426532.694 10 0 59275 27900.00000 0 18559423.681 6403538.288 16309157.936 10 0 59275 28800.00000 0 20060673.339 7505721.079 13875572.489 10 0 59275 29700.00000 0 21383836.493 8308791.037 11172854.301 10 0 59275 30600.00000 0 22470404.413 8827793.163 8253335.513 10 0 59275 31500.00000 0 23268159.148 9089333.770 5173598.736 10 0 59275 32400.00000 0 23733403.988 9130212.656 1993387.070 10 0 59275 33300.00000 0 23832859.458 8995629.078 -1225551.581 10 0 59275 34200.00000 0 23545143.840 8737037.038 -4420663.650 10 0 59275 35100.00000 0 22861774.385 8409740.609 -7529809.019 10 0 59275 36000.00000 0 21787645.277 8070331.333 -10492475.882 10 0 59275 36900.00000 0 20340960.457 7774076.874 -13250966.855 10 0 59275 37800.00000 0 18552622.444 7572372.451 -15751532.292 10 0 59275 38700.00000 0 16465101.405 7510364.233 -17945427.731 10 0 59275 39600.00000 0 14130830.885 7624846.689 -19789873.837 10 0 59275 40500.00000 0 11610196.792 7942524.309 -21248899.292 10 0 59275 41400.00000 0 8969203.426 8478712.671 -22294049.558 10 0 59275 42300.00000 0 6276914.230 9236535.002 -22904947.142 10 0 59275 43200.00000 0 3602774.283 10206649.302 -23069692.192 10 0 59275 44100.00000 0 1013926.528 11367518.415 -22785095.490 10 0 59275 45000.00000 0 -1427366.073 12686212.256 -22056739.291 10 0 59275 45900.00000 0 -3666084.953 14119708.736 -20898865.004 10 0 59275 46800.00000 0 -5656508.592 15616638.683 -19334090.109 10 0 59275 47700.00000 0 -7363868.315 17119401.102 -17392960.171 10 0 59275 48600.00000 0 -8765539.126 18566559.401 -15113345.112 10 0 59275 49500.00000 0 -9851717.256 19895417.276 -12539691.973 10 0 59275 50400.00000 0 -10625557.775 21044665.262 -9722149.400 10 0 59275 51300.00000 0 -11102768.662 21956986.095 -6715581.605 10 0 59275 52200.00000 0 -11310680.657 22581508.850 -3578491.731 10 0 59275 53100.00000 0 -11286834.299 22876008.341 -371876.505 10 0 59275 54000.00000 0 -11077145.941 22808757.287 2841964.850 10 0 59275 54900.00000 0 -10733732.022 22359953.612 6000643.612 10 0 59275 55800.00000 0 -10312484.976 21522663.364 9042892.370 10 0 59275 56700.00000 0 -9870504.238 20303240.305 11909750.005 10 0 59275 57600.00000 0 -9463491.394 18721205.228 14545698.005 10 0 59275 58500.00000 0 -9143219.487 16808590.695 16899726.543 10 0 59275 59400.00000 0 -8955182.848 14608778.998 18926310.545 10 0 59275 60300.00000 0 -8936525.828 12174881.921 20586278.010 10 0 59275 61200.00000 0 -9114336.793 9567729.602 21847555.026 10 0 59275 62100.00000 0 -9504378.274 6853551.422 22685774.497 10 0 59275 63000.00000 0 -10110306.021 4101444.119 23084738.092 10 0 59275 63900.00000 0 -10923409.399 1380730.784 23036723.508 10 0 59275 64800.00000 0 -11922884.189 -1241681.510 22542631.868 10 0 59275 65700.00000 0 -13076626.977 -3703837.814 21611972.654 10 0 59275 66600.00000 0 -14342518.929 -5951061.715 20262686.288 10 0 59275 67500.00000 0 -15670146.592 -7937977.280 18520807.169 10 0 59275 68400.00000 0 -17002889.313 -9630143.948 16419972.611 10 0 59275 69300.00000 0 -18280287.380 -11005237.330 14000785.893 10 0 59275 70200.00000 0 -19440593.088 -12053727.397 11310044.301 10 0 59275 71100.00000 0 -20423398.784 -12779026.039 8399845.586 10 0 59275 72000.00000 0 -21172232.096 -13197097.725 5326588.937 10 0 59275 72900.00000 0 -21637009.327 -13335549.439 2149888.799 10 0 59275 73800.00000 0 -21776243.214 -13232237.845 -1068578.111 10 0 59275 74700.00000 0 -21558911.028 -12933452.080 -4266270.300 10 0 59275 75600.00000 0 -20965902.801 -12491748.792 -7381000.166 10 0 59275 76500.00000 0 -19990986.811 -11963531.019 -10352149.600 10 0 59275 77400.00000 0 -18641249.721 -11406473.754 -13121858.018 10 0 59275 78300.00000 0 -16936990.871 -10876905.819 -15636158.747 10 0 59275 79200.00000 0 -14911073.373 -10427259.846 -17846040.652 10 0 59275 80100.00000 0 -12607757.782 -10103699.385 -19708413.263 10 0 59275 81000.00000 0 -10081066.148 -9944024.744 -21186955.774 10 0 59275 81900.00000 0 -7392744.140 -9975947.332 -22252832.689 10 0 59275 82800.00000 0 -4609906.157 -10215806.479 -22885261.636 10 0 59275 83700.00000 0 -1802461.646 -10667783.891 -23071922.001 10 0 59275 84600.00000 0 959569.931 -11323649.552 -22809196.284 10 0 59275 85500.00000 0 3608743.320 -12163050.225 -22102239.458 10 0 59276 0.00000 0 6082758.946 -13154328.522 -20964875.165 10 0 59276 900.00000 0 8326814.498 -14255838.084 -19419320.768 10 0 59276 1800.00000 0 10295639.248 -15417698.635 -17495747.458 10 0 59276 2700.00000 0 11955125.998 -16583917.052 -15231683.709 10 0 59276 3600.00000 0 13283494.995 -17694783.880 -12671274.757 10 0 59276 4500.00000 0 14271941.400 -18689443.759 -9864412.909 10 0 59276 5400.00000 0 14924741.687 -19508530.672 -6865756.419 10 0 59276 6300.00000 0 15258816.463 -20096756.270 -3733656.755 10 0 59276 7200.00000 0 15302770.308 -20405341.731 -529016.056 10 0 59276 8100.00000 0 15095451.355 -20394190.430 2685902.267 10 0 59276 9000.00000 0 14684093.350 -20033709.868 5848686.017 10 0 59276 9900.00000 0 14122120.294 -19306206.425 8897985.659 10 0 59276 10800.00000 0 13466707.634 -18206794.661 11774701.068 10 0 59276 11700.00000 0 12776203.705 -16743783.434 14423120.727 10 0 59276 12600.00000 0 12107520.450 -14938523.130 16791991.673 10 0 59276 13500.00000 0 11513603.194 -12824720.690 18835500.384 10 0 59276 14400.00000 0 11041085.364 -10447251.066 20514146.728 10 0 59276 15300.00000 0 10728225.929 -7860514.420 21795495.319 10 0 59276 16200.00000 0 10603215.165 -5126406.747 22654791.164 10 0 59276 17100.00000 0 10682918.911 -2311987.089 23075428.996 10 0 59276 18000.00000 0 10972113.215 513063.197 23049268.245 10 0 59276 18900.00000 0 11463241.032 3279085.545 22576788.324 10 0 59276 19800.00000 0 12136701.245 5919085.966 21667081.534 10 0 59276 20700.00000 0 12961658.340 8371265.818 20337683.524 10 0 59276 21600.00000 0 13897339.790 10581338.440 18614244.012 10 0 59276 22500.00000 0 14894767.961 12504537.031 16530043.059 10 0 59276 23400.00000 0 15898855.326 14107231.389 14125360.988 10 0 59276 24300.00000 0 16850776.353 15368087.008 11446712.694 10 0 59276 25200.00000 0 17690517.625 16278718.531 8545959.657 10 0 59276 26100.00000 0 18359499.654 16843810.220 5479315.638 10 0 59276 27000.00000 0 18803160.338 17080698.182 2306264.278 10 0 59276 27900.00000 0 18973390.889 17018431.525 -911591.114 10 0 59276 28800.00000 0 18830720.705 16696351.525 -4111723.398 10 0 59276 29700.00000 0 18346157.655 16162248.427 -7231899.757 10 0 59276 30600.00000 0 17502604.399 15470173.593 -10211397.987 10 0 59276 31500.00000 0 16295788.997 14677999.548 -12992196.383 10 0 59276 32400.00000 0 14734668.499 13844831.581 -15520113.189 10 0 59276 33300.00000 0 12841286.404 13028380.969 -17745872.386 10 0 59276 34200.00000 0 10650088.206 12282411.840 -19626074.013 10 0 59276 35100.00000 0 8206722.166 11654370.535 -21124049.288 10 0 59276 36000.00000 0 5566374.389 11183298.677 -22210583.159 10 0 59276 36900.00000 0 2791707.133 10898118.961 -22864489.651 10 0 59276 37800.00000 0 -49513.928 10816366.767 -23073028.511 10 0 59276 38700.00000 0 -2887004.671 10943421.623 -22832154.872 10 0 59276 39600.00000 0 -5650651.787 11272271.128 -22146597.057 10 0 59276 40500.00000 0 -8273194.207 11783817.281 -21029761.162 10 0 59276 41400.00000 0 -10692784.952 12447711.930 -19503464.466 10 0 59276 42300.00000 0 -12855326.673 13223685.572 -17597503.204 10 0 59276 43200.00000 0 -14716483.939 14063312.695 -15349063.534 10 0 59276 44100.00000 0 -16243289.048 14912138.277 -12801987.658 10 0 59276 45000.00000 0 -17415275.301 15712074.787 -10005910.032 10 0 59276 45900.00000 0 -18225091.887 16403967.512 -7015281.208 10 0 59276 46800.00000 0 -18678576.419 16930219.107 -3888299.051 10 0 59276 47700.00000 0 -18794284.118 17237361.820 -685769.025 10 0 59276 48600.00000 0 -18602495.624 17278468.368 2530083.509 10 0 59276 49500.00000 0 -18143747.278 17015299.482 5696825.252 10 0 59276 50400.00000 0 -17466947.665 16420097.575 8753027.058 10 0 59276 51300.00000 0 -16627161.328 15476951.196 11639452.445 10 0 59276 52200.00000 0 -15683154.093 14182673.158 14300199.623 10 0 59276 53100.00000 0 -14694803.967 12547155.829 16683775.280 10 0 59276 54000.00000 0 -13720486.580 10593188.919 18744080.213 10 0 59276 54900.00000 0 -12814544.650 8355747.358 20441288.831 10 0 59276 55800.00000 0 -12024946.917 5880778.758 21742606.779 10 0 59276 56700.00000 0 -11391233.642 3223540.281 22622893.427 10 0 59276 57600.00000 0 -10942833.629 446552.991 23065138.509 10 0 59276 58500.00000 0 -10697822.099 -2382742.733 23060784.740 10 0 59276 59400.00000 0 -10662170.589 -5194535.188 22609890.948 10 0 59276 60300.00000 0 -10829519.710 -7919289.088 21721132.891 10 0 59276 61200.00000 0 -11181484.203 -10490385.135 20411641.588 10 0 59276 62100.00000 0 -11688477.881 -12846643.884 18706681.698 10 0 59276 63000.00000 0 -12311024.612 -14934630.799 16639175.141 10 0 59276 63900.00000 0 -13001501.373 -16710647.891 14249077.919 10 0 59276 64800.00000 0 -13706241.314 -18142329.995 11582620.743 10 0 59276 65700.00000 0 -14367909.488 -19209779.528 8691426.659 10 0 59276 66600.00000 0 -14928052.080 -19906192.305 5631521.526 10 0 59276 67500.00000 0 -15329712.149 -20237947.987 2462255.464 10 0 59276 68400.00000 0 -15520001.520 -20224160.850 -754844.538 10 0 59276 69300.00000 0 -15452519.636 -19895709.192 -3957268.764 10 0 59276 70200.00000 0 -15089516.141 -19293783.739 -7082742.375 10 0 59276 71100.00000 0 -14403704.219 -18468015.923 -10070442.336 10 0 59276 72000.00000 0 -13379646.229 -17474264.861 -12862189.136 10 0 59276 72900.00000 0 -12014651.023 -16372156.689 -15403589.205 10 0 59276 73800.00000 0 -10319142.893 -15222480.575 -17645104.778 10 0 59276 74700.00000 0 -8316484.591 -14084552.030 -19543029.302 10 0 59276 75600.00000 0 -6042259.950 -13013655.650 -21060348.565 10 0 59276 76500.00000 0 -3543044.672 -12058675.991 -22167470.058 10 0 59276 77400.00000 0 -874715.652 -11260017.295 -22842805.777 10 0 59276 78300.00000 0 1899631.242 -10647900.358 -23073196.844 10 0 59276 79200.00000 0 4712068.425 -10241108.678 -22854171.485 10 0 59276 80100.00000 0 7492429.346 -10046236.783 -22190031.308 10 0 59276 81000.00000 0 10170998.638 -10057472.193 -21093764.351 10 0 59276 81900.00000 0 12681187.465 -10256919.646 -19586786.758 10 0 59276 82800.00000 0 14962082.417 -10615453.137 -17698518.456 10 0 59276 83700.00000 0 16960761.825 -11094058.814 -15465801.491 10 0 59276 84600.00000 0 18634283.239 -11645610.901 -12932172.846 10 0 59276 85500.00000 0 19951259.702 -12217004.444 -10147006.573 10 0 59277 0.00000 0 20892960.060 -12751553.593 -7164542.678 10 0 59277 900.00000 0 21453888.497 -13191552.742 -4042822.085 10 0 59277 1800.00000 0 21641821.316 -13480891.997 -842550.225 10 0 59277 2700.00000 0 21477300.282 -13567614.482 2374089.112 10 0 59277 3600.00000 0 20992607.138 -13406308.340 5544645.035 10 0 59277 4500.00000 0 20230263.336 -12960231.237 8607612.160 10 0 59277 5400.00000 0 19241120.255 -12203078.237 11503620.773 10 0 59277 6300.00000 0 18082121.385 -11120318.605 14176581.608 10 0 59277 7200.00000 0 16813831.389 -9710045.608 16574763.419 10 0 59277 8100.00000 0 15497836.167 -7983303.828 18651783.313 10 0 59277 9000.00000 0 14194122.774 -5963880.261 20367491.804 10 0 59277 9900.00000 0 12958548.376 -3687567.750 21688736.686 10 0 59277 10800.00000 0 11840503.175 -1200930.826 22589992.372 10 0 59277 11700.00000 0 10880863.778 1440375.635 23053843.845 10 0 59277 12600.00000 0 10110321.294 4173666.372 23071316.921 10 0 59277 13500.00000 0 9548152.750 6931580.467 22642049.240 10 0 59277 14400.00000 0 9201486.203 9644635.099 21774299.028 10 0 59277 15300.00000 0 9065089.651 12243874.295 20484791.316 10 0 59277 16200.00000 0 9121692.360 14663504.761 18798404.028 10 0 59277 17100.00000 0 9342825.358 16843411.118 16747699.008 10 0 59277 18000.00000 0 9690146.446 18731447.314 14372305.770 10 0 59277 18900.00000 0 10117194.887 20285409.842 11718168.499 10 0 59277 19800.00000 0 10571502.884 21474611.037 8836669.308 10 0 59277 20700.00000 0 10996975.727 22280986.693 5783643.566 10 0 59277 21600.00000 0 11336440.822 22699691.420 2618305.224 10 0 59277 22500.00000 0 11534258.090 22739156.133 -597897.699 10 0 59277 23400.00000 0 11538881.180 22420604.529 -3802475.491 10 0 59277 24300.00000 0 11305260.324 21777048.151 -6933113.739 10 0 59277 25200.00000 0 10796983.924 20851801.724 -9928890.830 10 0 59277 26100.00000 0 9988066.582 19696580.948 -12731471.455 10 0 59277 27000.00000 0 8864306.000 18369262.804 -15286251.974 10 0 59277 27900.00000 0 7424149.241 16931402.977 -17543434.357 10 0 59277 28800.00000 0 5679029.685 15445615.500 -19459006.708 10 0 59277 29700.00000 0 3653158.407 13972925.678 -20995610.428 10 0 59277 30600.00000 0 1382776.917 12570208.446 -22123276.407 10 0 59277 31500.00000 0 -1085098.812 11287820.760 -22820015.300 10 0 59277 32400.00000 0 -3694391.523 10167528.142 -23072250.104 10 0 59277 33300.00000 0 -6382062.174 9240812.928 -22875082.400 10 0 59277 34200.00000 0 -9080508.303 8527635.403 -22232387.073 10 0 59277 35100.00000 0 -11720161.330 8035699.573 -21156733.757 10 0 59277 36000.00000 0 -14232174.356 7760253.815 -19669136.764 10 0 59277 36900.00000 0 -16551088.138 7684433.810 -17798638.659 10 0 59277 37800.00000 0 -18617363.968 7780132.072 -15581736.018 10 0 59277 38700.00000 0 -20379677.822 8009355.936 -13061659.002 10 0 59277 39600.00000 0 -21796880.207 8326015.242 -10287519.462 10 0 59277 40500.00000 0 -22839540.436 8678062.612 -7313344.829 10 0 59277 41400.00000 0 -23491011.739 9009894.466 -4197017.363 10 0 59277 42300.00000 0 -23747973.838 9264909.976 -999140.313 10 0 59277 43200.00000 0 -23620431.911 9388118.711 2218146.194 10 0 59277 44100.00000 0 -23131173.741 9328685.964 5392375.835 10 0 59277 45000.00000 0 -22314709.656 9042307.760 8461969.232 10 0 59277 45900.00000 0 -21215741.488 8493315.074 11367425.769 10 0 59277 46800.00000 0 -19887226.237 7656418.572 14052471.101 10 0 59277 47700.00000 0 -18388116.740 6518020.590 16465138.451 10 0 59277 48600.00000 0 -16780874.641 5077039.410 18558763.590 10 0 59277 49500.00000 0 -15128859.818 3345211.288 20292875.359 10 0 59277 50400.00000 0 -13493705.031 1346857.508 21633965.708 10 0 59277 51300.00000 0 -11932784.618 -881874.285 22556125.822 10 0 59277 52200.00000 0 -10496881.591 -3294263.747 23041537.315 10 0 59277 53100.00000 0 -9228149.133 -5834715.433 23080810.105 10 0 59277 54000.00000 0 -8158449.985 -8440831.405 22673161.247 10 0 59277 54900.00000 0 -7308141.678 -11045774.612 21826431.612 10 0 59277 55800.00000 0 -6685357.257 -13580826.838 20556940.000 10 0 59277 56700.00000 0 -6285810.830 -15978037.001 18889176.955 10 0 59277 57600.00000 0 -6093135.773 -18172851.619 16855343.183 10 0 59277 58500.00000 0 -6079741.555 -20106619.468 14494740.296 10 0 59277 59400.00000 0 -6208153.659 -21728867.287 11853024.191 10 0 59277 60300.00000 0 -6432780.889 -22999252.225 8981334.042 10 0 59277 61200.00000 0 -6702036.367 -23889109.516 5935312.483 10 0 59277 62100.00000 0 -6960723.313 -24382530.355 2774034.899 10 0 59277 63000.00000 0 -7152585.141 -24476924.048 -441132.201 10 0 59277 63900.00000 0 -7222911.983 -24183039.950 -3647721.741 10 0 59277 64800.00000 0 -7121092.771 -23524447.266 -6783382.457 10 0 59277 65700.00000 0 -6803003.836 -22536493.679 -9787096.960 10 0 59277 66600.00000 0 -6233131.452 -21264785.916 -12600376.983 10 0 59277 67500.00000 0 -5386336.715 -19763255.767 -15168411.658 10 0 59277 68400.00000 0 -4249186.064 -18091892.856 -17441145.454 10 0 59277 69300.00000 0 -2820789.147 -16314239.749 -19374263.721 10 0 59277 70200.00000 0 -1113106.576 -14494755.205 -20930065.802 10 0 59277 71100.00000 0 849287.353 -12696156.968 -22078207.955 10 0 59277 72000.00000 0 3029978.634 -10976856.378 -22796301.048 10 0 59277 72900.00000 0 5381993.084 -9388593.040 -23070351.046 10 0 59277 73800.00000 0 7849528.855 -7974369.134 -22895033.522 10 0 59277 74700.00000 0 10370069.892 -6766770.162 -22273796.816 10 0 59277 75600.00000 0 12876792.331 -5786742.236 -21218791.925 10 0 59277 76500.00000 0 15301163.305 -5042876.582 -19750630.689 10 0 59277 77400.00000 0 17575623.357 -4531230.280 -17897977.281 10 0 59277 78300.00000 0 19636240.275 -4235689.372 -15696981.359 10 0 59277 79200.00000 0 21425223.284 -4128857.430 -13190564.401 10 0 59277 80100.00000 0 22893192.457 -4173430.353 -10427573.764 10 0 59277 81000.00000 0 24001108.677 -4323997.544 -7461821.660 10 0 59277 81900.00000 0 24721783.954 -4529191.617 -4351028.490 10 0 59277 82800.00000 0 25040909.664 -4734094.163 -1155692.024 10 0 59277 83700.00000 0 24957560.856 -4882794.496 2062094.791 10 0 59277 84600.00000 0 24484156.903 -4920992.072 5239853.769 10 0 59277 85500.00000 0 23645881.739 -4798531.884 8315935.011 10 0 59278 0.00000 0 22479589.584 -4471765.362 11230710.215 10 0 59278 900.00000 0 21032243.290 -3905636.590 13927723.049 10 0 59278 1800.00000 0 19358952.255 -3075407.332 16354773.780 10 0 59278 2700.00000 0 17520692.265 -1967946.315 18464919.072 10 0 59278 3600.00000 0 15581803.133 -582531.008 20217367.911 10 0 59278 4500.00000 0 13607368.282 1068873.145 21578257.804 10 0 59278 5400.00000 0 11660584.830 2961867.378 22521297.671 10 0 59278 6300.00000 0 9800232.562 5060398.313 23028266.280 10 0 59278 7200.00000 0 8078345.810 7318029.206 23089357.708 10 0 59278 8100.00000 0 6538183.551 9679652.227 22703368.002 10 0 59278 9000.00000 0 5212580.629 12083572.267 21877719.787 10 0 59278 9900.00000 0 4122747.456 14463877.507 20628324.280 10 0 59278 10800.00000 0 3277567.095 16753000.192 18979282.851 10 0 59278 11700.00000 0 2673418.348 18884362.992 16962432.916 10 0 59278 12600.00000 0 2294531.948 20795002.332 14616745.710 10 0 59278 13500.00000 0 2113864.955 22428060.644 11987586.134 10 0 59278 14400.00000 0 2094456.985 23735044.233 9125847.519 10 0 59278 15300.00000 0 2191211.691 24677752.585 6086976.757 10 0 59278 16200.00000 0 2353028.922 25229798.063 2929907.594 10 0 59278 17100.00000 0 2525197.856 25377651.551 -284078.003 10 0 59278 18000.00000 0 2651950.026 25121169.082 -3492538.551 10 0 59278 18900.00000 0 2679063.855 24473576.151 -6633088.702 10 0 59278 19800.00000 0 2556409.661 23460909.100 -9644617.815 10 0 59278 20700.00000 0 2240326.178 22120936.057 -12468486.881 10 0 59278 21600.00000 0 1695726.416 20501601.920 -15049679.682 10 0 59278 22500.00000 0 897841.861 18659062.310 -17337884.717 10 0 59278 23400.00000 0 -166470.658 16655388.957 -19288485.797 10 0 59278 24300.00000 0 -1497916.706 14556043.047 -20863441.114 10 0 59278 25200.00000 0 -3084482.783 12427222.915 -22032032.946 10 0 59278 26100.00000 0 -4901699.238 10333197.873 -22771472.764 10 0 59278 27000.00000 0 -6913437.970 8333740.382 -23067349.621 10 0 59278 27900.00000 0 -9073212.582 6481764.460 -22913912.920 10 0 59278 28800.00000 0 -11325927.160 4821269.425 -22314183.965 10 0 59278 29700.00000 0 -13610000.870 3385674.816 -21279894.277 10 0 59278 30600.00000 0 -15859779.561 2196615.645 -19831252.009 10 0 59278 31500.00000 0 -18008133.247 1263247.537 -17996541.379 10 0 59278 32400.00000 0 -19989130.604 582089.488 -15811563.271 10 0 59278 33300.00000 0 -21740678.215 137409.145 -13318928.387 10 0 59278 34200.00000 0 -23207013.840 -97867.525 -10567217.362 10 0 59278 35100.00000 0 -24340949.217 -160762.536 -7610024.870 10 0 59278 36000.00000 0 -25105768.630 -96429.061 -4504907.113 10 0 59278 36900.00000 0 -25476704.067 44009.940 -1312254.048 10 0 59278 37800.00000 0 -25441925.926 205874.540 1905890.891 10 0 59278 38700.00000 0 -25003008.766 333488.750 5087039.969 10 0 59278 39600.00000 0 -24174853.794 372780.207 8169475.090 10 0 59278 40500.00000 0 -22985072.706 273808.157 11093442.686 10 0 59278 41400.00000 0 -21472859.959 -6887.301 13802306.478 10 0 59278 42300.00000 0 -19687401.776 -504213.752 16243636.046 10 0 59278 43200.00000 0 -17685889.212 -1242819.820 18370210.966 10 0 59278 44100.00000 0 -15531218.524 -2235824.820 20140922.136 10 0 59278 45000.00000 0 -13289474.710 -3484037.800 21521554.093 10 0 59278 45900.00000 0 -11027302.354 -4975698.705 22485434.598 10 0 59278 46800.00000 0 -8809272.105 -6686752.816 23013940.292 10 0 59278 47700.00000 0 -6695350.902 -8581647.685 23096849.736 10 0 59278 48600.00000 0 -4738579.441 -10614620.463 22732537.900 10 0 59278 49500.00000 0 -2983051.640 -12731423.490 21928008.719 10 0 59278 50400.00000 0 -1462278.613 -14871418.005 20698765.039 10 0 59278 51300.00000 0 -198003.757 -16969950.693 19068517.952 10 0 59278 52200.00000 0 800482.696 -18960916.028 17068740.168 10 0 59278 53100.00000 0 1536501.698 -20779399.201 14738070.853 10 0 59278 54000.00000 0 2025609.699 -22364290.764 12121581.978 10 0 59278 54900.00000 0 2294704.944 -23660764.664 9269918.884 10 0 59278 55800.00000 0 2380653.024 -24622516.279 6238330.417 10 0 59278 56700.00000 0 2328489.164 -25213666.576 3085606.276 10 0 59278 57600.00000 0 2189272.753 -25410251.763 -127058.591 10 0 59278 58500.00000 0 2017684.588 -25201234.791 -3337250.789 10 0 59278 59400.00000 0 1869468.615 -24588994.802 -6482553.397 10 0 59278 60300.00000 0 1798827.009 -23589272.461 -9501765.012 10 0 59278 61200.00000 0 1855879.804 -22230572.041 -12336098.358 10 0 59278 62100.00000 0 2084297.957 -20553044.192 -14930334.270 10 0 59278 63000.00000 0 2519211.667 -18606895.380 -17233907.585 10 0 59278 63900.00000 0 3185484.187 -16450390.295 -19201902.698 10 0 59278 64800.00000 0 4096425.991 -14147530.791 -20795938.528 10 0 59278 65700.00000 0 5253005.415 -11765508.761 -21984924.925 10 0 59278 66600.00000 0 6643590.738 -9372039.947 -22745675.138 10 0 59278 67500.00000 0 8244236.025 -7032690.657 -23063362.095 10 0 59278 68400.00000 0 10019499.890 -4808309.483 -22931809.397 10 0 59278 69300.00000 0 11923763.589 -2752671.672 -22353611.303 10 0 59278 70200.00000 0 13902993.588 -910434.485 -21340079.465 10 0 59278 71100.00000 0 15896874.897 684511.431 -19911017.628 10 0 59278 72000.00000 0 17841225.530 2010226.439 -18094328.985 10 0 59278 72900.00000 0 19670590.612 3057393.784 -15925464.233 10 0 59278 73800.00000 0 21320906.982 3829452.407 -13446721.519 10 0 59278 74700.00000 0 22732126.078 4342187.002 -10706412.605 10 0 59278 75600.00000 0 23850684.795 4622794.785 -7757912.122 10 0 59278 76500.00000 0 24631720.515 4708470.461 -4658609.240 10 0 59278 77400.00000 0 25040937.404 4644571.252 -1468783.028 10 0 59278 78300.00000 0 25056046.056 4482441.470 1749575.833 10 0 59278 79200.00000 0 24667716.736 4276990.221 4933973.342 10 0 59278 80100.00000 0 23880007.084 4084125.930 8022626.417 10 0 59278 81000.00000 0 22710247.422 3958157.003 10955659.219 10 0 59278 81900.00000 0 21188389.497 3949268.869 13676258.440 10 0 59278 82800.00000 0 19355846.895 4101183.929 16131765.442 10 0 59278 83700.00000 0 17263876.312 4449102.845 18274684.898 10 0 59278 84600.00000 0 14971567.560 5018013.412 20063591.480 10 0 59278 85500.00000 0 12543526.102 5821437.642 21463918.242 99